Regional Weather Roundup
Issued by NWS

Home | Current Version | Previous Version | Text Only | Print | Product List | Glossary On
Versions: 1 2 3 4 5 6 7 8 9 10 11 12 13 14 15 16 17 18 19 20 21 22 23 24 25 26 27 28 29 30 31 32 33 34 35 36 37 38 39 40 41 42 43 44 45 46 47 48 49 50
000
ASUS42 KKEY 212310
RWRKEY

FLORIDA REGIONAL WEATHER ROUNDUP FOR THE FLORIDA KEYS
NATIONAL WEATHER SERVICE KEY WEST FLORIDA
600 PM EST SUN DEC 21 2014

...SOUTH FLORIDA AND THE KEYS...

CITY           SKY/WX    TMP DP  RH WIND       PRES   REMARKS
FORT MYERS     MOCLDY    74  66  76 S3        30.00S
SW REGIONAL AP MOCLDY    75  64  68 S6        30.01S
NAPLES         MOCLDY    74  66  76 S12       30.01S
MIAMI          MOCLDY    74  64  71 SE7       30.04R
WEST KENDALL   MOCLDY    73  64  73 CALM      30.04R
HOMESTEAD      MOCLDY    72  64  76 E5        30.03S
MARATHON       MOCLDY    76  69  79 SE6       30.02R
BOCA CHICA NAS MOCLDY    76  69  79 SE10      30.01S
KEY WEST INTL  MOCLDY    77  68  73 SE12G22   30.02R

...INTERNATIONAL WEATHER...

CITY           SKY/WX    TMP DP  RH WIND       PRES   REMARKS
NASSAU BAHAMAS MOCLDY    75  68  78 E5        30.06R
CANCUN MEXICO  PTCLDY    79  73  83 SE9       29.94R
COZUMEL MEXICO PTCLDY    73  73 100 SE7       29.94S

ADJACENT COASTAL WATERS...

STATION/POSITION TIME  SKY/WX   TEMP    WIND        PRES    WAVE
                                AIR SEA DIR/SP/G            HT/PER
                 (UTC)          (F)     (DEG/KT/KT) (MB)    (FT/S)
PULASKI SHOAL LI 2200            75     130/ 11/ 12 1015.0F
SAND KEY         2236            77     130/ 14/ 17 1016.0R
SOMBRERO KEY     2300            76     130/ 13/ 15 1017.2R
LONG KEY         2300            74 73  140/  6/  7 1017.5R
MOLASSES REEF    2300            75 76  120/  8/  9 1017.0R
FOWEY ROCKS      NOT AVBL
Buoy 42080       NOT AVBL

$$


USA.gov is the U.S. government's official web portal to all federal, state and local government web resources and services.